CAPE
0 0 0 0 0 0 0 0 0 0 0 0 0 0 0 0 0 1 2 0 0 0 0 0 0 55 175 411 319 252 113 85 66 40 14 11 70 142 77 80 54 18 18
0 0 0 0 0 0 0 0 0 0 0 0 0 0 0 0 0 0 0 0 0 1 9 3 1 29 219 438 330 351 267 288 121 105 14 40 0 0 0 0 0 0 0
0 0 0 0 0 0 0 0 0 0 0 0 0 1 2 4 7 10 6 9 4 2 7 185 243 294 346 482 491 538 315 178 14 1 21 0 0 0 0 0 0 0 6
0 0 0 0 0 0 0 0 0 0 0 0 0 1 4 7 4 22 4 19 18 227 451 412 385 527 408 419 427 313 238 142 41 0 1 14 38 4 0 0 0 0 0
0 0 0 0 0 0 0 0 0 0 0 0 0 2 3 4 11 8 23 46 241 228 321 697 703 550 378 295 265 100 63 134 53 0 18 44 9 6 6 1 0 0 0
0 0 0 0 0 0 0 0 0 0 0 0 0 0 2 4 7 5 1 14 59 19 6 3 55 86 34 8 0 22 0 4 12 40 58 17 24 15 15 27 17 0 0
0 0 0 0 0 0 0 0 0 0 0 0 0 0 0 3 4 3 4 3 2 3 4 1 0 0 0 3 3 2 2 4 4 3 2 0 1 0 1 3 5 6 0
0 0 0 0 0 0 0 0 0 0 0 0 0 0 0 0 2 1 2 1 2 0 0 0 0 0 0 0 0 0 0 1 1 0 0 3 1 0 0 2 2 3 3
0 0 0 0 0 0 0 0 0 0 0 0 0 0 0 0 0 0 0 0 0 0 0 0 0 0 0 0 0 0 0 0 0 0 0 0 0 0 0 0 4 5 5
0 0 0 0 0 0 0 0 0 0 0 0 0 0 0 0 0 0 0 0 0 0 0 0 0 0 0 0 0 0 0 0 0 0 0 0 0 0 0 0 0 0 3
0 0 0 0 0 0 0 0 0 0 0 0 0 0 0 0 0 0 0 0 0 0 0 0 0 0 0 0 0 0 0 0 0 0 0 0 0 0 0 0 0 0 0
0 0 0 0 0 0 0 0 0 0 0 0 0 0 0 0 0 0 0 0 0 0 0 0 0 0 0 0 0 0 0 0 0 0 0 0 0 0 0 0 0 0 0
0 0 0 0 0 0 0 0 0 0 0 0 0 0 0 0 0 0 0 0 0 0 0 0 0 0 0 0 0 0 0 0 0 0 0 0 0 0 0 0 0 0 0
0 0 0 0 0 0 0 0 0 0 0 0 0 0 0 0 0 0 0 0 0 0 0 0 0 0 0 0 0 0 0 0 0 0 0 0 0 0 0 0 1 1 3
0 0 0 0 0 0 0 0 0 0 0 0 0 0 0 0 0 0 0 0 0 0 0 0 0 0 0 0 0 0 0 0 0 0 0 0 0 0 0 1 2 2 3
0 0 0 0 0 0 0 0 0 0 0 0 0 0 0 0 0 0 0 0 0 0 0 0 0 0 0 0 0 0 0 0 0 0 0 0 0 0 0 1 3 3 3
0 0 0 0 0 0 0 0 0 0 0 0 0 0 0 0 0 0 0 0 0 0 0 0 0 0 0 0 0 0 0 0 0 0 0 0 0 0 0 0 2 2 3
0 0 0 0 0 0 0 0 0 0 0 0 0 0 0 0 0 0 0 0 0 0 0 0 0 0 0 0 0 0 0 0 0 0 0 0 0 0 1 2 1 3 2
0 0 0 0 0 0 0 0 0 0 0 0 0 0 0 0 0 0 0 0 0 0 0 0 0 0 0 0 0 0 0 0 0 0 0 0 0 0 2 3 3 4 1
0 0 0 0 0 0 0 0 0 0 0 0 0 0 0 0 0 0 0 0 0 0 0 0 0 0 0 0 0 0 0 0 0 0 0 0 0 4 1 2 4 3 0
0 0 0 0 0 0 0 0 0 0 0 0 0 0 0 0 0 0 0 0 0 0 0 0 0 0 0 0 0 0 0 0 0 0 0 0 0 3 2 5 0 1 7
0 0 0 0 0 0 0 0 0 0 0 0 0 0 0 0 0 0 0 0 0 0 0 0 0 0 0 0 0 0 1 0 0 0 0 0 4 2 1 0 4 4 0
0 0 0 0 0 0 0 0 0 0 0 0 0 0 0 0 0 0 0 0 0 0 0 0 0 0 0 0 0 0 2 1 0 0 0 0 0 0 0 0 1 0 0
0 0 0 0 0 0 0 0 0 0 0 0 0 0 0 0 0 0 0 0 0 0 0 0 0 0 0 0 0 0 0 0 0 0 0 0 0 0 0 0 0 0 1
0 0 0 0 0 0 0 0 0 0 0 0 0 0 0 0 0 0 0 0 0 0 0 0 0 0 0 0 0 0 0 0 0 0 0 0 0 0 0 0 0 2 2
0 0 0 0 0 0 0 0 0 0 0 0 0 0 0 0 0 0 0 0 0 0 0 0 0 0 0 0 0 2 2 3 1 0 0 0 0 0 0 1 2 3 2
CIN
0 0 0 0 0 0 0 0 0 0 0 0 0 0 0 0 0 0 0 0 0 0 0 0 0 -13 -3 -4 0 0 -2 -25 -37 -50 -64 -93 -40 -50 -95 -105 -109 -113 -90
0 0 0 0 0 0 0 0 0 0 0 0 0 0 0 0 0 -1 0 0 0 -17 -72 -15 -5 -22 -10 -3 -18 -2 -9 -8 -11 0 -42 -20 0 0 0 0 0 0 0
0 0 0 0 0 0 0 0 0 0 0 0 0 0 0 0 -1 0 -26 -53 -95 -133 -90 -30 -19 -13 -2 -4 -18 0 -5 -35 -81 0 -11 0 0 0 0 0 0 0 -168
0 0 0 0 0 0 0 0 0 0 0 0 0 0 -1 0 -1 -1 -16 -45 -88 -49 -19 -31 -20 -1 -10 -10 -9 -11 -25 -66 -52 0 0 -9 -7 -11 0 0 0 -34 0
0 0 0 0 0 0 0 0 0 0 0 0 0 0 0 0 0 -9 -11 -28 -10 -12 -21 -1 -1 0 -1 -5 -11 -29 -37 -50 -26 -4 -33 -1 -40 -28 -3 0 0 0 0
0 0 0 0 0 0 0 0 0 0 0 0 0 0 0 0 0 0 0 -18 -6 -46 -76 -72 -37 -47 -49 -49 -5 -25 -33 -45 -44 -13 -29 -24 -15 -1 -15 0 0 0 0
0 0 0 0 0 0 0 0 0 0 0 0 0 0 0 0 0 0 0 0 0 0 0 0 0 0 0 0 0 0 0 0 0 0 0 0 0 0 0 0 -1 0 0
0 0 0 0 0 0 0 0 0 0 0 0 0 0 0 0 0 0 0 0 0 0 0 0 0 0 0 0 0 0 0 0 0 0 0 0 0 0 0 0 0 0 0
0 0 0 0 0 0 0 0 0 0 0 0 0 0 0 0 0 0 0 0 0 0 0 0 0 0 0 0 0 0 0 0 0 0 0 0 0 0 0 0 0 0 0
0 0 0 0 0 0 0 0 0 0 0 0 0 0 0 0 0 0 0 0 0 0 0 0 0 0 0 0 0 0 0 0 0 0 0 0 0 0 0 0 0 0 0
0 0 0 0 0 0 0 0 0 0 0 0 0 0 0 0 0 0 0 0 0 0 0 0 0 0 0 0 0 0 0 0 0 0 0 0 0 0 0 0 0 0 0
0 0 0 0 0 0 0 0 0 0 0 0 0 0 0 0 0 0 0 0 0 0 0 0 0 0 0 0 0 0 0 0 0 0 0 0 0 0 0 0 0 0 0
0 0 0 0 0 0 0 0 0 0 0 0 0 0 0 0 0 0 0 0 0 0 0 0 0 0 0 0 0 0 0 0 0 0 0 0 0 0 0 0 0 0 0
0 0 0 0 0 0 0 0 0 0 0 0 0 0 0 0 0 0 0 0 0 0 0 0 0 0 0 0 0 0 0 0 0 0 0 0 0 0 0 0 0 0 0
0 0 0 0 0 0 0 0 0 0 0 0 0 0 0 0 0 0 0 0 0 0 0 0 0 0 0 0 0 0 0 0 0 0 0 0 0 0 0 0 0 0 0
0 0 0 0 0 0 0 0 0 0 0 0 0 0 0 0 0 0 0 0 0 0 0 0 0 0 0 0 0 0 0 0 0 0 0 0 0 0 0 0 0 0 0
0 0 0 0 0 0 0 0 0 0 0 0 0 0 0 0 0 0 0 0 0 0 0 0 0 0 0 0 0 0 0 0 0 0 0 0 0 0 0 0 0 0 0
0 0 0 0 0 0 0 0 0 0 0 0 0 0 0 0 0 0 0 0 0 0 0 0 0 0 0 0 0 0 0 0 0 0 0 0 0 0 0 0 0 0 0
0 0 0 0 0 0 0 0 0 0 0 0 0 0 0 0 0 0 0 0 0 0 0 0 0 0 0 0 0 0 0 0 0 0 0 0 0 0 0 -1 -1 0 0
0 0 0 0 0 0 0 0 0 0 0 0 0 0 0 0 0 0 0 0 0 0 0 0 0 0 0 0 0 0 0 0 0 0 0 0 0 0 0 0 0 0 0
0 0 0 0 0 0 0 0 0 0 0 0 0 0 0 0 0 0 0 0 0 0 0 0 0 0 0 0 0 0 0 0 0 0 0 0 0 0 0 0 0 0 0
0 0 0 0 0 0 0 0 0 0 0 0 0 0 0 0 0 0 0 0 0 0 0 0 0 0 0 0 0 0 0 0 0 0 0 0 0 0 0 0 0 0 0
0 0 0 0 0 0 0 0 0 0 0 0 0 0 0 0 0 0 0 0 0 0 0 0 0 0 0 0 0 0 0 0 0 0 0 0 0 0 0 0 0 0 0
0 0 0 0 0 0 0 0 0 0 0 0 0 0 0 0 0 0 0 0 0 0 0 0 0 0 0 0 0 0 0 0 0 0 0 0 0 0 0 0 0 0 0
0 0 0 0 0 0 0 0 0 0 0 0 0 0 0 0 0 0 0 0 0 0 0 0 0 0 0 0 0 0 0 0 -2 0 0 0 0 0 0 0 0 0 0
0 0 0 0 0 0 0 0 0 0 0 0 0 0 0 0 0 0 0 0 0 0 0 0 0 0 0 0 0 0 0 0 0 0 0 0 0 0 0 0 0 0 0
Wind_Speed
4 4 5 4 5 5 6 7 9 11 9 8 9 9 10 10 10 9 13 14 12 13 10 8 8 7 8 8 7 4 5 4 4 3 3 3 6 7 6 5 5 7 7
5 5 5 4 4 5 5 7 9 10 9 7 7 6 8 9 9 9 12 12 12 12 9 8 8 8 6 7 6 7 3 5 7 3 3 4 3 2 3 4 4 5 4
9 7 5 4 5 5 5 7 8 9 9 10 7 7 8 7 6 8 9 9 10 11 11 8 7 7 6 6 6 7 5 4 2 2 2 4 2 1 1 3 3 3 4
8 7 7 5 5 5 4 5 7 8 8 10 8 9 7 8 8 8 8 9 8 10 8 7 6 5 3 3 4 4 4 3 3 3 5 7 3 2 1 1 0 2 6
6 8 6 6 6 5 4 4 6 7 8 9 8 7 9 7 7 8 8 9 7 9 9 3 3 3 3 4 6 5 6 6 3 3 4 1 2 1 2 6 5 4 5
6 6 6 6 7 4 4 4 5 6 8 9 9 8 9 10 8 9 7 6 6 6 11 10 5 5 4 4 4 5 6 6 4 4 5 4 3 3 2 4 5 7 8
6 7 7 6 6 5 5 4 4 6 7 8 8 8 8 9 8 9 5 6 5 5 8 10 9 7 7 5 6 7 7 6 5 4 3 3 3 2 2 1 0 1 4
6 7 8 6 6 6 6 5 5 5 5 6 8 7 7 5 5 6 6 3 4 5 6 5 7 8 8 7 7 6 6 7 7 8 6 6 5 2 2 2 2 1 4
7 7 6 6 6 7 8 7 6 5 4 4 5 6 6 6 6 8 6 5 4 4 6 6 6 6 7 7 6 5 6 6 6 6 7 6 4 1 3 1 1 3 3
8 7 6 7 6 7 6 6 7 7 5 4 4 3 4 4 5 5 6 6 4 5 5 5 6 6 6 6 6 5 5 6 5 5 6 5 4 5 2 1 0 2 3
10 10 9 8 7 5 7 8 7 7 6 5 4 4 3 3 3 3 4 5 5 6 6 5 5 6 6 6 6 6 6 7 6 6 7 7 5 3 1 2 3 2 2
11 12 11 9 7 8 8 10 9 9 8 6 5 5 4 3 3 2 1 2 4 4 4 4 5 5 5 5 6 6 5 5 6 5 5 5 3 3 4 4 4 4 5
12 11 9 7 6 7 8 9 9 10 8 7 6 5 5 4 4 3 3 1 1 2 3 4 4 4 4 5 5 5 5 6 6 6 5 4 4 4 4 4 4 4 3
12 9 8 7 6 6 8 9 10 9 8 7 7 7 7 6 5 4 3 2 2 1 2 3 3 3 4 4 4 4 5 5 6 5 5 6 6 4 4 4 4 4 5
11 8 7 8 7 6 6 8 9 8 8 8 7 8 6 6 5 5 4 3 3 1 1 0 2 2 2 2 4 4 4 4 4 3 2 1 2 3 4 4 4 5 5
12 13 10 10 10 7 7 7 10 11 10 11 11 9 9 8 8 6 6 4 3 3 2 1 1 1 1 2 5 5 3 3 2 2 2 3 4 4 5 6 7 7 7
13 14 13 12 9 8 6 8 9 8 11 12 11 10 10 10 8 7 6 6 5 4 4 4 4 4 3 4 3 8 3 1 2 2 2 3 3 5 5 7 8 9 11
14 14 13 12 9 5 5 6 4 8 10 10 11 10 9 9 7 8 7 6 5 6 6 5 4 4 4 5 5 8 4 2 2 3 3 4 4 5 7 6 8 8 8
14 14 13 13 9 10 7 6 5 8 9 13 12 11 10 9 9 10 9 8 7 6 5 4 5 5 4 5 7 7 3 3 3 3 3 4 4 7 8 6 7 8 9
14 14 15 10 8 14 6 6 8 7 12 14 14 12 12 12 12 10 9 6 5 7 6 5 5 6 4 5 6 5 3 3 3 3 4 6 6 8 9 7 6 8 9
17 15 11 11 12 12 6 9 8 11 14 9 8 10 11 12 11 9 7 7 7 6 6 7 6 6 6 5 8 8 4 3 3 3 3 3 8 9 10 10 4 7 9
17 14 9 13 13 8 6 11 11 14 6 8 10 10 10 9 8 10 8 7 8 8 8 7 6 5 6 9 9 9 8 8 4 3 3 4 6 8 7 6 8 10 8
15 13 12 14 13 9 8 11 16 7 7 8 10 10 10 11 10 11 9 7 7 6 7 7 6 6 6 5 11 10 9 6 4 3 5 4 5 5 4 6 6 6 4
15 14 13 13 14 14 8 13 13 6 8 10 10 9 11 11 10 8 8 8 8 7 7 7 7 5 5 6 5 5 5 5 3 5 1 3 4 4 4 4 4 4 4
14 13 13 13 15 15 13 11 11 7 8 9 8 9 9 12 10 10 10 10 9 10 8 7 6 7 7 7 9 8 5 4 5 2 1 2 3 3 3 4 4 4 5
16 14 15 14 14 13 13 12 6 7 8 8 7 8 8 8 8 9 6 14 11 17 14 12 9 6 8 11 13 13 8 6 5 1 2 3 3 3 4 4 5 5 6
Wind_Direction
267 256 272 268 288 289 317 328 327 335 339 340 334 331 323 323 317 312 304 296 290 285 273 258 248 245 233 211 216 200 224 225 210 146 218 221 220 224 225 234 248 262 265
263 273 255 253 279 306 326 333 344 340 338 326 310 286 296 301 297 300 298 295 293 289 272 253 246 243 236 235 202 213 209 214 189 196 145 187 166 206 209 216 226 249 267
261 266 273 272 289 317 334 343 338 328 323 306 295 307 306 302 308 311 312 306 301 296 282 259 240 237 230 227 197 214 198 192 217 273 248 156 183 191 140 168 187 241 260
255 263 277 285 297 300 313 322 331 321 318 308 315 324 315 315 314 315 300 317 301 304 269 259 253 224 196 217 176 170 147 148 184 137 39 32 66 66 279 105 255 273 290
261 266 270 267 269 281 291 315 320 315 321 319 321 326 326 315 314 323 324 330 344 340 345 292 140 136 124 116 131 118 104 102 129 91 100 71 15 249 258 291 283 268 276
286 268 265 263 266 268 275 291 311 321 330 328 326 331 327 328 331 335 342 345 355 356 4 0 25 84 99 128 131 123 119 115 107 130 175 155 189 174 178 248 270 312 315
283 275 276 267 268 267 256 264 282 313 332 330 326 334 333 327 326 325 334 356 6 5 6 19 23 26 19 35 70 70 65 69 93 101 88 44 103 63 105 183 303 319 345
279 275 268 265 256 247 237 238 256 280 313 328 328 333 338 332 325 325 330 2 29 21 18 31 36 38 43 55 64 75 84 86 80 75 69 67 55 70 140 160 135 310 239
283 282 291 266 260 241 231 222 230 245 264 305 316 330 338 337 337 335 342 350 4 18 29 32 47 54 66 71 73 83 90 94 90 94 100 101 95 89 58 40 187 231 255
291 286 279 271 250 231 225 218 227 241 233 254 268 296 315 327 331 334 352 350 14 16 17 53 51 41 45 58 70 73 74 88 84 86 91 90 81 71 56 86 69 254 263
283 281 279 270 259 236 215 218 222 230 225 221 234 249 268 294 316 332 346 349 8 10 32 40 47 48 47 45 61 63 62 70 66 58 72 73 69 79 43 56 56 44 10
283 291 291 288 273 239 220 218 220 221 218 214 218 221 227 237 241 245 325 350 6 28 36 52 75 71 65 66 72 75 84 95 92 87 89 67 45 46 35 35 35 17 6
297 301 301 289 277 254 231 223 219 220 214 204 206 212 221 238 251 275 305 356 68 55 55 66 88 106 103 94 87 87 78 66 67 68 69 64 45 43 31 21 12 356 321
294 292 297 286 271 253 233 220 224 221 213 210 210 216 212 207 216 234 243 271 324 337 96 98 106 109 108 112 108 90 81 66 51 42 37 32 22 12 4 345 334 319 317
308 294 287 285 285 279 250 224 220 205 200 208 213 221 221 217 211 216 227 233 223 228 310 23 50 61 103 125 123 115 103 85 75 75 84 78 336 359 330 321 311 302 307
310 305 287 277 278 274 272 240 221 207 189 199 209 207 204 204 208 208 209 213 226 238 218 207 256 212 219 274 183 148 132 105 58 37 26 360 346 334 317 300 299 308 309
309 304 300 285 271 272 262 256 234 204 202 205 208 202 199 204 208 201 196 202 206 210 229 219 203 214 238 261 244 163 130 55 358 317 304 311 311 307 295 290 310 301 299
313 310 306 294 274 259 258 263 225 208 215 215 213 204 200 205 193 190 201 205 199 204 197 210 225 225 225 232 217 152 143 173 229 242 243 259 278 270 278 302 298 299 299
287 289 293 279 271 281 272 251 233 220 200 214 216 204 197 197 194 203 200 193 193 203 210 207 200 215 233 247 187 155 168 193 224 253 256 274 294 294 300 305 292 300 299
286 286 288 276 265 275 250 243 244 212 227 224 217 196 191 194 196 197 193 192 198 200 191 208 208 215 222 240 218 184 181 213 227 232 274 288 300 288 304 312 313 306 303
284 282 277 271 267 279 227 242 244 236 241 227 206 193 194 198 195 187 183 184 189 186 196 200 196 205 198 224 234 226 190 214 208 229 247 268 287 311 323 322 320 292 319
287 278 276 280 277 262 211 250 239 245 214 197 197 194 193 191 189 187 184 190 183 184 195 200 201 206 209 217 224 220 221 218 195 234 237 257 297 330 324 328 312 337 349
293 293 283 282 281 276 220 253 254 214 191 194 205 201 190 187 180 182 181 183 188 193 191 202 201 203 204 202 216 217 228 237 242 219 276 347 339 333 325 325 344 354 344
299 299 290 280 281 290 251 236 265 206 190 205 211 194 189 187 185 185 183 183 184 191 196 200 208 200 199 202 202 211 230 241 268 287 303 333 333 342 332 342 347 343 341
306 301 296 291 288 292 287 265 254 199 209 216 207 198 197 195 189 194 188 189 197 192 188 197 190 184 200 209 201 197 202 210 236 236 227 320 324 326 338 342 339 346 344
309 308 306 301 296 297 292 287 248 205 215 219 210 207 199 198 191 186 179 207 196 200 203 196 185 190 194 197 201 211 204 229 240 179 253 269 266 294 319 315 317 327 327